www.pogodaiklimat.ru

Погода и климат >> Архив погоды >> Россия >> Вологодская область >> Никольск


АРХИВ ПОГОДЫ в Никольске

Время (UTC), дата Ветер
(напр.,м/с)
 
Видим.   Явления Облачность Т
(С)
Тd
(С)
f
(%)
Тe
(С)
Тes
(С)
Комфортность P
(гПа)
Po
(гПа)
Тmin
(С)
Tmax
(С)
R
(мм)
R24
(мм)
S
(см)
00 12.07 С 1 4000 м дымка 10/8 270 м
[Sc Ac und]
+7.6 +6.2 91 +7 +7 1004.4 987.3
03 12.07 С 1 20 км 9/5 1000 м
[Sc Ac trans]
+9.1 +7.7 91 +8 +9 1004.6 987.6 +6.6
06 12.07 штиль 0 20 км 10/10 420 м
[Sc]
+12.5 +8.5 77 +12 +12 1005.3 988.5
09 12.07 Ю 1 20 км 9/5 600 м
[Sc Ac trans]
+14.4 +5.3 54 +15 +19 1006.2 989.5
12 12.07 З 2 20 км 9/8 930 м
[Cb calv Ac trans]
+14.2 +7.3 63 +14 +15 1007.4 990.6
15 12.07 З 2 20 км 8/5 600 м
[Cu Sc Ac trans Ci sp]
+16.1 +5.1 48 +16 +17 1008.1 991.4 +16.5
18 12.07 Ю 1 20 км 6/3 600 м
[Sc Ac trans Ci sp]
+11.9 +8.2 78 +12 +12 1009.3 992.4
21 12.07 штиль 0 20 км 4/3 600 м
[Sc Ac trans]
+6.8 +5.2 90 +6 +6 1009.9 992.6
00 13.07 С 1 20 км 8/5 600 м
[Sc Ac trans]
+6.7 +5.3 91 +6 +6 1009.6 992.3
03 13.07 СВ 1 20 км 9/6 540 м
[Sc Ac trans]
+8.5 +7.0 90 +8 +8 1009.0 991.9 +5.6
06 13.07 С 1 20 км 8/4 600 м
[Sc Ac trans]
+13.8 +9.0 73 +14 +18 1008.2 991.4
09 13.07 ЮЗ 1 20 км 6/4 1000 м
[Cu hum Ci sp]
+18.4 +6.1 44 +20 +29 1007.5 991.0
12 13.07 С 1 20 км 8/5 1000 м
[Cu hum Ci sp]
+20.4 +5.5 38 +22 +27 комфорт 1007.2 990.8
15 13.07 С 1 20 км 8/3 1000 м
[Cu med, cong Ac trans Ci sp]
+20.5 +5.9 39 +22 +24 комфорт 1007.4 991.0 +21.2
18 13.07 штиль 0 20 км 6/3 600 м
[Sc Ac trans Ci sp]
+14.6 +10.6 77 +14 +14 1008.3 991.6
21 13.07 штиль 0 10 км слаб. ливневой дождь 10/10 400 м
[Cb cap]
+13.6 +10.7 83 +13 +13 1009.0 992.2
00 14.07 С 1 10 км слаб. ливневой дождь 10/10 360 м
[Cb cap]
+12.5 +9.9 84 +13 +13 1009.7 992.8
03 14.07 С 1 20 км {ливн. осадки} 9/4 600 м
[Sc Ac trans]
+12.7 +10.4 86 +13 +14 1009.6 992.7 +12.2 0.3
06 14.07 СВ 1 20 км {ливн. осадки} 8/5 600 м
[Sc Ac trans]
+15.5 +10.6 73 +16 +20 1009.9 993.2
09 14.07 С 1 20 км 9/5 600 м
[Cu Sc Ac trans]
+18.6 +10.6 60 +20 +24 1009.3 992.8
12 14.07 ЮЗ 1 20 км {ливн. осадки} 9/5 600 м
[Cb calv Ac trans]
+18.2 +11.2 64 +20 +22 1009.3 992.8
15 14.07 СВ 1 20 км 8/4 600 м
[Cu Sc Ac trans]
+18.1 +12.2 68 +19 +20 1009.9 993.3 +19.0 0.0
18 14.07 штиль 0 20 км 6/3 600 м
[Sc Ac trans Ci fib]
+14.8 +11.7 82 +15 +15 1010.3 993.5
21 14.07 СЗ 1 20 км 8/0
[Ac trans Ci sp]
+11.6 +10.0 90 +11 +11 1010.8 993.8
00 15.07 СВ 1 20 км 9/3 600 м
[Sc Ac trans]
+11.9 +10.4 91 +12 +12 1010.7 993.8
03 15.07 штиль 0 500 м туман 8/0
[Ac trans]
+12.7 +11.4 92 +12 +14 1010.9 994.0 +11.4
06 15.07 С 1 20 км {туман} 3/3 600 м
[Cu med, cong Ac trans]
+19.2 +10.5 57 +21 +29 комфорт 1009.6 993.1
09 15.07 СЗ 2 20 км 9/5 1000 м
[Cb calv Ac trans Ci ing]
+20.3 +11.0 55 +23 +27 комфорт 1008.9 992.5
12 15.07 ЮЗ 2 10 км слаб. ливневой дождь {гроза} 9/5 600 м
[Cb cap Ac trans]
+16.0 +12.7 81 +16 +18 1009.2 992.5
15 15.07 С 1 20 км {ливн. осадки} 8/3 1000 м
[Sc diur, vesp Ac trans Ci sp]
+20.3 +12.1 59 +23 +24 комфорт 1008.5 992.1 +22.4 2
18 15.07 СЗ 1 20 км {ливн. осадки} 8/3 600 м
[Sc Ac trans Ci sp]
+15.1 +11.5 79 +16 +16 1009.0 992.3
21 15.07 СЗ 1 20 км 6/3 600 м
[Sc Ac trans Ci sp]
+11.9 +9.3 84 +12 +12 1008.6 991.7
00 16.07 штиль 0 20 км 6/3 600 м
[Sc Ac trans Ci sp]
+10.7 +8.5 86 +10 +10 1009.4 992.4
03 16.07 З 1 20 км 4/0
[Ac trans]
+14.0 +10.6 80 +14 +16 1009.5 992.7 +10.3
06 16.07 СЗ 2 20 км 3/3 1000 м
[Cu hum]
+18.1 +10.3 60 +19 +25 1010.0 993.4
09 16.07 СЗ 2 20 км 5/5 1000 м
[Cu med, cong]
+20.5 +8.0 44 +22 +29 комфорт 1010.5 994.1
12 16.07 З 2 20 км 6/4 1000 м
[Cu med, cong Ci sp]
+22.3 +6.7 36 +23 +28 комфорт 1010.8 994.5
15 16.07 З 2 20 км 6/3 1000 м
[Cu med, cong Ac trans Ci sp]
+21.1 +7.1 40 +22 +23 комфорт 1011.5 995.1 +23.3
18 16.07 штиль 0 20 км 3/0
[Ci sp]
+14.8 +11.2 79 +15 +15 1012.8 996.0
21 16.07 СЗ 1 20 км 3/0
[Ci sp]
+10.2 +8.5 89 +10 +10 1014.0 996.9
00 17.07 штиль 0 20 км 3/0
[Ci sp]
+8.1 +6.8 91 +7 +7 1015.0 997.8
03 17.07 штиль 0 20 км 3/0
[Ci sp]
+12.6 +9.3 80 +12 +15 1015.2 998.2 +7.8
06 17.07 ЮВ 1 20 км 8/0
[Ci sp]
+20.8 +10.2 51 +24 +33 комфорт 1014.3 997.8
09 17.07 штиль 0 20 км 8/5 1000 м
[Cu med, cong Ac trans Ci sp]
+23.5 +9.8 42 +25 +31 комфорт 1014.0 997.7
12 17.07 В 1 20 км 9/6 1110 м
[Cu Sc Ac trans]
+23.1 +9.9 43 +25 +27 комфорт 1013.6 997.3
15 17.07 В 2 20 км 8/3 1000 м
[Cu Sc Ac trans Ci sp]
+23.4 +9.2 40 +25 +26 комфорт 1012.8 996.4 +24.7
18 17.07 С 1 20 км 8/3 1000 м
[Sc Ac trans Ci sp]
+16.6 +11.2 70 +17 +17 1013.2 996.5
21 17.07 С 1 20 км 6/0
[Ac trans Ci sp]
+15.0 +10.6 75 +16 +16 1013.2 996.4
00 18.07 С 1 20 км 9/3 600 м
[Sc Ac trans]
+14.8 +9.8 72 +15 +15 1012.4 995.6
03 18.07 СЗ 1 20 км 8/3 600 м
[Sc Ac trans Ci sp]
+16.5 +10.5 68 +17 +18 1012.1 995.4 +14.0
06 18.07 В 4 20 км 9/0
[Ac trans]
+20.3 +9.7 51 +22 +25 комфорт 1011.3 994.8
09 18.07 В 3 20 км 9/1 1000 м
[Cu med, cong Ac trans]
+21.0 +10.2 50 +23 +28 комфорт 1011.1 994.7
12 18.07 В 1 20 км 9/4 600 м
[Sc Ac trans]
+20.1 +11.0 56 +23 +26 комфорт 1010.6 994.1
15 18.07 В 1 20 км 9/5 600 м
[Sc Ac trans]
+20.3 +11.4 57 +23 +24 комфорт 1010.1 993.7 +22.3
18 18.07 штиль 0 20 км 9/5 600 м
[Sc Ac trans]
+17.9 +12.9 73 +18 +18 1009.9 993.3

 

Местоположение метеостанции Никольск (Вологодская область, Россия): широта 59.53 долгота 45.47 высота над уровнем моря 143 м.

В архиве по умолчанию представлена погода в Никольске за последнюю неделю. Архивные данные за месяц целиком и за предыдущие месяцы, начиная с января 2011 года, Вы можете получить, выбрав интересующий диапазон дат из раскрывающегося списка и нажав кнопку "Ввод!".


*Определитесь, кто Вы:
робот инопланетянин человек

Внимание! Время в таблицах - всемирное. Для получения местного времени необходимо прибавить поправку, которая равна 3 ч.

Смотрите также архив погоды в соседних городах и на ближайших метеорологических станциях:

Погода в Пыщуге (Костромская область, Россия) (74 км)
Погода в Вохме (Костромская область, Россия) (100 км)
Погода в Кологриве (Костромская область, Россия) (103 км)
Погода в Нюксенице (Вологодская область, Россия) (118 км)
Погода в Шарье (Костромская область, Россия) (129 км)
Погода в Мантурово (Костромская область, Россия) (139 км)
Погода в Великом Устюге (Вологодская область, Россия) (145 км)
Погода в Тотьме (Вологодская область, Россия) (157 км)
Погода в Опарино (Кировская область, Россия) (162 км)
Погода в Даровском (Кировская область, Россия) (166 км)

Пояснения к столбцам:

Ветер - указаны скорость ветра в м/с - средняя за 10 мин, порывы в срок и между сроками (в фигурных скобках) и направление, откуда дует ветер: С - северный, СВ - северо-восточный, В - восточный, ЮВ - юго-восточный, Ю - южный, ЮЗ - юго-западный, З - западный, СЗ - северо-западный.
Видимость - горизонтальная дальность видимости в метрах или километрах. При видимости от 1 до 10 км при отсутствии осадков обычно наблюдается дымка, при ухудшении видимости до 1 км и менее - туман. В сухую погоду видимость может ухудшаться дымом, пылью или мглою.
Явления - указаны атмосферные явления, наблюдавшиеся в срок или в последний час перед сроком; фигурными скобками обозначены явления, наблюдавшиеся между сроками (за 1-3 часа до срока); квадратными скобками обозначены град или гололедные отложения с указанием их диаметра в мм.
Облачность - указаны через наклонную черту общая и нижняя облачность в баллах и высота нижней границы облаков в метрах; квадратными скобками обозначены формы облаков: Ci - перистые, Cs - перисто-слоистые, Cc - перисто-кучевые, Ac - высококучевые, As - высокослоистые, Sc - слоисто-кучевые, Ns - слоисто-дождевые, Cu - кучевые, Cb - кучево-дождевые. Подробнее классификацию облаков см. в Атласе облаков (PDF).
T - Температура воздуха - температура, измеренная на высоте 2 м над землей.
Td - Температура точки росы - температура, при понижении до которой содержащийся в воздухе водяной пар достигнет насыщения.
f - Относительная влажность воздуха - влажноcть воздуха, измеренная на высоте 2 м над землей.
Te - Эффективная температура - температура, которую ощущает одетый по сезону человек в тени. Характеристика душности погоды. При расчете учитывается влияние влажности воздуха и скорости ветра на теплоощущения человека.
Tes - Эффективная температура на солнце - температура, которую ощущает человек, с поправкой на солнечный нагрев. Характеристика знойности погоды. Зависит от высоты солнца над горизонтом, облачности и скорости ветра. Ночью, в пасмурную погоду, а также при ветре 12 м/с и более поправка равна нулю.
P - Атмосферное давление - приведенное к уровню моря атмосферное давление.
Po - Атмосферное давление - измеренное на уровне метеостанции атмосферное давление.
Tmin - Минимальная температура - минимум температуры воздуха на высоте 2 м над землей.
Tmax - Максимальная температура - максимум температуры воздуха на высоте 2 м над землей.
R - Количество осадков - Количество выпавших осадков за период времени, мм. При наведении курсора мыши на число - период времени, за который выпало указанное количество осадков.
R24 - Количество осадков - Количество выпавших осадков за 24 часа, мм.
S - Снежный покров - Высота снежного покрова, см. При наведении курсора мыши на число - состояние снежного покрова и степень покрытия местности в баллах.